Terug naar catalogus

XIWANG-1

HOPE-1

ActiefAmateurradioSSO
NORAD 36122·PAYLOAD·🇨🇳 China

Gelanceerd Dec 15, 2009 vanaf Taiyuan Satellite Launch Center

Loading…

Volgende Passages (komende 24 uur)

TLE

VersSource: Space-Track

Epoch: Sep 14, 2026, 14:51 UTC

1 36122U 09072B   26257.61875503  .00000057  00000-0  26617-3 0  9996
2 36122 100.4119 210.0516 0008014  33.6610 326.5011 13.16441242804771

Volg XIWANG-1 in realtime met AllMySat

Download on the App Store